Flag Weather past 2 weeks in Dillenburg, Hesse, Germany

Now
30 °F

Ice fog.


Feels Like: 20 °F
Forecast: 31 / 41 °F
Wind: 14 mph from Southeast

Location: Hessen

Current Time: Nov 29, 2014 at 9:57:14 AM

Latest Report: Nov 29, 2014 at 9:20 AM


Visibility: 0 mi

Pressure: 29.95 "Hg

Humidity: 100%

Dew point: 30 °F

Location of DillenburgLocation

Historic Weather in Dillenburg — Graph

°F

Dillenburg temperature yesterday

Maximum temperature yesterday: 34 °F (at 7:20 AM)
Minimum temperature yesterday: 32 °F (at 5:50 PM)
Average temperature yesterday: 33 °F

Past Weeks' High & Low Weather Summary

 TemperatureHumidityPressure
High46 °F (Nov 14, 1:50 PM)100% (Nov 14, 9:50 AM)30.30 "Hg (Nov 14, 9:50 AM)
Low30 °F (Nov 26, 7:50 AM)81% (Nov 21, 12:20 PM)29.50 "Hg (Nov 16, 7:50 AM)
Average39 °F98%29.95 "Hg
* Reported Nov 14 8:20 AM — Nov 29 8:50 AM, Dillenburg, Weather by CustomWeather, © 2014

Note: Actual official high and low records may vary slightly from our data, if they occured in-between our weather recording intervals... More about our weather records

Advertising

Dillenburg weather history for previous 24 hours

 ConditionsComfort  
Time TempWeatherWind HumidityBarometerVisibility
8:50 AM
Nov 29
30 °FIce fog.13 mph100%29.92 "Hg0 mi
8:20 AM30 °FIce fog.15 mph100%29.92 "Hg0 mi
7:50 AM30 °FIce fog.15 mph100%29.92 "Hg0 mi
8:50 PM
Nov 28
32 °FLight freezing rain. Ice fog.23 mph100%29.86 "Hg0 mi
8:20 PM32 °FLight freezing rain. Ice fog.22 mph100%29.86 "Hg0 mi
7:50 PM32 °FDrizzle. Fog.20 mph100%29.86 "Hg0 mi
7:20 PM32 °FDrizzle. Fog.21 mph100%29.86 "Hg0 mi
6:50 PM32 °FDrizzle. Fog.21 mph100%29.86 "Hg0 mi
6:20 PM32 °FDrizzle. Fog.18 mph100%29.86 "Hg0 mi
5:50 PM32 °FDrizzle. Fog.17 mph100%29.86 "Hg0 mi
5:20 PM34 °FDrizzle. Fog.17 mph100%29.83 "Hg0 mi
4:50 PM34 °FDrizzle. Fog.15 mph100%29.83 "Hg0 mi
4:20 PM34 °FDrizzle. Fog.14 mph100%29.83 "Hg0 mi
3:50 PM34 °FDrizzle. Fog.15 mph100%29.83 "Hg0 mi
3:20 PM34 °FFog.16 mph100%29.80 "Hg0 mi
2:50 PM34 °FFog.14 mph100%29.80 "Hg0 mi
2:20 PM34 °FFog.15 mph100%29.80 "Hg0 mi
1:50 PM34 °FFog.16 mph100%29.80 "Hg0 mi
1:20 PM34 °FFog.20 mph100%29.80 "Hg0 mi
12:50 PM34 °FFog.21 mph100%29.83 "Hg0 mi
12:20 PM34 °FFog.16 mph100%29.83 "Hg0 mi
11:50 AM34 °FFog.15 mph100%29.83 "Hg0 mi
11:20 AM34 °FFog.15 mph100%29.83 "Hg0 mi
10:50 AM34 °FFog.16 mph100%29.83 "Hg0 mi
10:20 AM34 °FFog.16 mph100%29.83 "Hg0 mi
9:50 AM34 °FFog.15 mph100%29.83 "Hg0 mi
9:20 AM34 °FFog.17 mph100%29.83 "Hg0 mi
Weather by CustomWeather, © 2014

See weather overviewHow to use our weather pages